FW4689 Weather Reports


time (UTC)temp
C
wind
direction
speed
KPH
gust
KPH
rain 1hr
cm
rain 24hr
cm
rain mn
cm
humidity
%
barometer
mb
20260506121513 8 314 0.0 4.8 0.00 0.00 0.00 92 1017.3
20260506120024 8 314 0.0 3.2 0.00 0.00 0.00 92 1017.2
20260506114525 8 314 1.6 3.2 0.00 0.00 0.00 92 1017.2
20260506113034 8 314 1.6 4.8 0.00 0.00 0.00 92 1017.2
20260506111534 8 314 0.0 0.0 0.00 0.00 0.00 92 1017.0
20260506110020 8 314 1.6 3.2 0.00 0.00 0.00 92 1017.1
20260506104530 8 314 3.2 4.8 0.00 0.00 0.00 92 1017.1
20260506103032 8 314 3.2 4.8 0.00 0.00 0.00 92 1017.0
20260506101526 8 314 3.2 6.4 0.00 0.00 0.00 92 1017.0
20260506100027 8 316 1.6 4.8 0.00 0.00 0.00 92 1017.0
20260506094534 8 318 3.2 6.4 0.00 0.00 0.00 92 1017.2
20260506093031 8 318 1.6 6.4 0.00 0.00 0.00 92 1017.2
20260506091530 8 320 1.6 6.4 0.00 0.00 0.00 92 1017.4
20260506090015 9 324 3.2 6.4 0.00 0.00 0.00 92 1017.6
20260506084523 9 4 3.2 6.4 0.00 0.00 0.00 92 1017.3
20260506083031 9 4 1.6 6.4 0.00 0.00 0.00 92 1017.6
20260506081529 9 22 1.6 4.8 0.00 0.00 0.00 91 1017.5
20260506073032 9 4 0.0 3.2 0.00 0.00 0.00 91 1017.4
20260506071522 10 4 0.0 4.8 0.00 0.00 0.00 91 1017.3
20260506061528 10 9 3.2 6.4 0.00 0.00 0.00 90 1016.7
20260506044531 11 109 0.0 3.2 0.00 0.00 0.00 88 1016.0
20260506043026 11 109 0.0 4.8 0.00 0.00 0.00 88 1015.8
20260506041517 11 109 0.0 4.8 0.00 0.00 0.00 88 1015.7
20260506040023 12 109 0.0 3.2 0.00 0.00 0.00 87 1015.4
20260506034525 12 109 0.0 3.2 0.00 0.00 0.00 86 1015.2
20260506033020 12 110 0.0 0.0 0.00 0.00 0.00 86 1014.9
20260506031532 13 110 0.0 0.0 0.00 0.00 0.00 85 1014.6
20260506030026 13 111 3.2 4.8 0.00 0.00 0.00 83 1014.4
20260506024535 14 115 0.0 4.8 0.00 0.00 0.00 81 1014.1
20260506023102 15 115 1.6 4.8 0.00 0.00 0.00 80 1014.0
20260506021516 15 116 0.0 3.2 0.00 0.00 0.00 79 1013.8
20260506020030 15 116 1.6 4.8 0.00 0.00 0.00 80 1013.9
20260506014512 15 116 1.6 4.8 0.00 0.00 0.00 80 1013.8
20260506013022 15 116 1.6 4.8 0.00 0.00 0.00 80 1013.8
20260506011528 15 115 3.2 6.4 0.00 0.00 0.00 79 1013.8
20260506010043 15 166 3.2 6.4 0.00 0.00 0.00 78 1013.9
20260506004521 16 167 6.4 12.9 0.00 0.00 0.00 76 1013.7
20260506003026 16 186 4.8 11.3 0.00 0.00 0.00 73 1013.8
20260506001529 16 160 3.2 8.0 0.00 0.00 0.00 74 1013.6
20260506000014 16 98 3.2 6.4 0.00 0.00 0.00 75 1013.6
20260505234524 16 88 6.4 12.9 0.00 0.00 0.00 75 1013.4
20260505233029 16 126 8.0 16.1 0.00 0.00 0.00 71 1013.6
20260505231513 16 162 8.0 16.1 0.00 0.00 0.00 71 1013.3
20260505230036 16 132 8.0 19.3 0.00 0.00 0.00 73 1013.5
20260505224525 17 149 8.0 12.9 0.00 0.00 0.00 70 1013.4
20260505223028 17 50 1.6 11.3 0.00 0.00 0.00 69 1013.7
20260505221517 17 267 1.6 9.7 0.00 0.00 0.00 70 1013.7
20260505220026 16 330 3.2 6.4 0.00 0.00 0.00 71 1013.9
20260505214527 16 12 1.6 8.0 0.00 0.00 0.00 72 1014.2
20260505213020 16 316 3.2 8.0 0.00 0.00 0.00 77 1014.4
20260505211522 16 274 4.8 9.7 0.00 0.00 0.00 78 1014.3
20260505210030 16 324 1.6 8.0 0.00 0.00 0.00 72 1014.4
20260505204516 17 182 6.4 16.1 0.00 0.00 0.00 64 1014.3
20260505203028 17 118 14.5 20.9 0.00 0.00 0.00 63 1014.1
20260505201523 17 165 8.0 14.5 0.00 0.00 0.00 63 1014.2
20260505200012 17 174 12.9 19.3 0.00 0.00 0.00 63 1014.1
20260505194559 17 181 8.0 16.1 0.00 0.00 0.00 63 1014.1
20260505193016 17 117 8.0 14.5 0.00 0.00 0.00 62 1014.4
20260505191522 17 118 8.0 17.7 0.00 0.00 0.00 65 1014.4
20260505190032 16 83 1.6 12.9 0.00 0.00 0.00 67 1014.6
20260505184526 16 131 8.0 12.9 0.00 0.00 0.00 69 1014.4
20260505183016 16 152 8.0 16.1 0.00 0.00 0.00 68 1014.4
20260505181527 16 108 11.3 16.1 0.00 0.00 0.00 68 1014.3
20260505180031 16 161 6.4 12.9 0.00 0.00 0.00 68 1014.1
20260505174520 16 98 11.3 16.1 0.00 0.00 0.00 68 1014.2
20260505173035 16 91 4.8 14.5 0.00 0.00 0.00 70 1014.1
20260505171540 15 96 6.4 14.5 0.00 0.00 0.00 72 1014.0
20260505170019 15 110 6.4 14.5 0.00 0.00 0.00 75 1013.8
20260505164523 14 129 6.4 12.9 0.00 0.00 0.00 75 1013.8
20260505163023 14 146 6.4 14.5 0.00 0.00 0.00 78 1013.9
20260505161514 14 122 8.0 12.9 0.00 0.00 0.00 78 1013.8
20260505153033 13 125 3.2 4.8 0.00 0.00 0.00 80 1013.6
20260505151535 13 116 0.0 6.4 0.00 0.00 0.00 82 1013.6
20260505124528 11 55 1.6 3.2 0.00 0.00 0.00 87 1013.1
20260505123018 11 61 3.2 4.8 0.00 0.00 0.00 87 1013.1